Regional Weather Roundup
Issued by NWS Kansas City/Pleasant Hill, MO

Home | Current Version | Previous Version | Text Only | Print | Product List | Glossary On
Versions: 1 2 3 4 5 6 7 8 9 10 11 12 13 14 15 16 17 18 19 20 21 22 23 24 25 26 27 28 29 30 31 32 33 34 35 36 37 38 39 40 41 42 43 44 45 46 47 48 49 50
000
ASUS43 KEAX 170404
RWREAX

WEATHER ROUNDUP FOR EASTERN KANSAS AND NORTHWEST MISSOURI
NATIONAL WEATHER SERVICE KANSAS CITY/PLEASANT HILL MO
1100 PM CDT TUE SEP 16 2014

KSZ040-057-103>105-MOZ028-029-037-043-170500-
...KANSAS CITY METROPOLITAN AREA...

CITY           SKY/WX    TMP DP  RH WIND       PRES   REMARKS
K.C. INTL      CLOUDY    64  56  75 SE7       30.04F
K.C. DOWNTOWN  CLOUDY    68  55  63 SE6       30.04S
LEES SUMMIT    CLOUDY    63  55  75 SE5       30.06S
OLATHE - IXD   MOCLDY    63  57  81 SE6       30.05S
OLATHE - OJC   MOCLDY    62  57  83 SE5       30.04S
LAWRENCE       CLOUDY    61  58  90 E6        30.04S

$$

MOZ001>008-011>017-020>025-030>033-038>040-044>046-053-054-170500-
...NORTHERN AND CENTRAL MISSOURI...

CITY           SKY/WX    TMP DP  RH WIND       PRES   REMARKS
ST. JOSEPH     CLOUDY    63  53  70 SE7       30.04F
MOSBY          CLOUDY    57  55  94 CALM      30.05S
WHITEMAN AFB   MOCLDY    58  55  92 VRB1      30.05F
CLINTON        CLEAR     61  59  94 CALM      30.06S
SEDALIA        CLEAR     58  54  86 E3        30.06S
WARSAW         NOT AVBL
MARSHALL       PTCLDY    59  55  88 E5        30.08S
CHILLICOTHE      N/A     56  53  90 CALM      30.08S
MOBERLY        CLEAR     54  50  87 SE5       30.08S
KIRKSVILLE     CLEAR     50  48  93 CALM      30.08F

$$

MOZ041-047>049-056>058-063>065-088>090-097-170500-
...EASTERN AND SOUTHERN MISSOURI...

CITY           SKY/WX    TMP DP  RH WIND       PRES   REMARKS
ST. LOUIS INTL CLEAR     57  51  80 CALM      30.11S
SPIRIT OF STL  CLEAR     51  50  96 CALM      30.10R FOG
COLUMBIA         N/A     56  54  93 MISG      30.08S
JEFFERSON CITY CLEAR     55  53  93 SE3       30.07S
MEXICO         CLEAR    N/A N/A N/A CALM      30.09S
ROLLA          FOG       55  53  93 S6        30.08S VSB 3/4
LEBANON        CLEAR     57  55  94 SE5       30.08F FOG
OSAGE BEACH    MOCLDY    59  55  88 CALM      30.07S
SPRINGFIELD    CLEAR     64  61  90 S8        30.06F
BRANSON        CLOUDY    64  63  94 SE5       30.10S
NEVADA         CLEAR     61  59  94 E5        30.05F
JOPLIN         CLEAR     67  65  93 SE8       30.04S
WEST PLAINS    CLOUDY    64  58  80 CALM      30.10F

$$

IAZ060-094-KSZ022-034>040-054-083-096-NEZ052-066-093-170500-
...KANSAS...SOUTHEAST NEBRASKA AND IOWA...

CITY           SKY/WX    TMP DP  RH WIND       PRES   REMARKS
TOPEKA         CLOUDY    65  58  78 NE3       30.03S
MANHATTAN      CLOUDY    67  55  65 E5        30.00F
EMPORIA        PTCLDY    64  61  90 SE5       30.03R
CHANUTE        PTCLDY    66  63  90 SE5       30.02F
WICHITA        PTCLDY    69  64  84 S12       30.00F
OMAHA          CLOUDY    63  50  62 SE7       30.01F
LINCOLN        CLOUDY    64  52  64 S8        30.01F
FALLS CITY     CLOUDY    62  55  77 SE6       30.02F
LAMONI         PTCLDY    56  49  77 SE6       30.06S
DES MOINES     PTCLDY    56  49  77 SE6       30.06F

$$




USA.gov is the U.S. government's official web portal to all federal, state and local government web resources and services.